Location: *
(49.6619°S, 177.4603°W)
Time: 05:32:12
(UTC+00:00)

Cosmos 332 Rocket - Pass Details

Date: 31 January 2023
Orbit: 681 x 701 km, 74.0° (Epoch: 01 April)

Event Time Altitude Azimuth Distance (km) Brightness Sun altitude
Rises 10:45:35 0° 207° (SSW) 3,090 8.7 -20.8°
Reaches altitude 10° 10:47:56 10° 210° (SSW) 2,169 7.5 -20.9°
Maximum altitude 10:52:43 58° 288° (WNW) 819 4.1 -21.2°
Enters shadow 10:53:54 45° 338° (NNW) 957 4.1 -21.2°
